Location: The Stocker AstroScience Center
(25.7579°N, 80.3725°W)
Time: 22:54:55
(UTC-04:00)

ISS - All Passes

Search period start: 27 May 2017 00:00
Search period end: 06 June 2017 00:00
Orbit: 402 x 408 km, 51.6° (Epoch: 28 May)

Date Brightness Start Highest point End Pass type
(mag) Time Alt. Az. Time Alt. Az. Time Alt. Az.
27 May - 04:26:43 10° NNW 04:29:44 33° NE 04:32:43 10° ESE visible
27 May - 06:04:54 10° WSW 06:05:55 11° SW 06:06:56 10° SW visible
27 May - 19:24:09 10° SSW 19:27:21 50° SE 19:30:33 10° NE daylight
27 May - 21:03:32 10° NW 21:04:02 10° NW 21:04:31 10° NNW visible
28 May - 03:35:26 10° N 03:37:36 16° NE 03:39:46 10° E night (unlit)
28 May - 05:11:17 10° WNW 05:14:04 25° SW 05:16:48 10° S visible
28 May - 18:32:54 10° S 18:35:26 21° SE 18:37:59 10° ENE daylight
28 May - 20:09:19 10° W 20:11:49 20° NW 20:14:19 10° N daylight
29 May - 04:18:53 10° NW 04:22:07 66° SW 04:25:20 10° SSE night (unlit)
29 May - 19:16:33 10° WSW 19:19:41 42° NW 19:22:50 10° NNE daylight
30 May - 03:26:56 10° NNW 03:30:06 46° NE 03:33:15 10° ESE night (unlit)
30 May - 18:24:23 10° SW 18:27:39 74° SE 18:30:56 10° NE daylight
31 May - 02:35:23 10° N 02:37:58 21° NE 02:40:33 10° E night (unlit)
31 May - 04:11:57 10° W 04:14:19 19° SW 04:16:40 10° S night (unlit)
31 May - 17:32:47 10° S 17:35:40 28° SE 17:38:33 10° ENE daylight
31 May - 19:10:06 10° W 19:12:09 15° NW 19:14:13 10° N daylight
01 Jun - 01:44:47 10° NNE 01:45:44 11° NE 01:46:41 10° NE night (unlit)
01 Jun - 03:19:14 10° NW 03:22:22 45° SW 03:25:29 10° SSE night (unlit)
01 Jun - 16:42:16 10° SSE 16:43:44 12° SE 16:45:13 10° E daylight
01 Jun - 18:17:00 10° WSW 18:19:58 31° NW 18:22:56 10° NNE daylight
02 Jun - 02:27:05 10° NW 02:30:20 67° NE 02:33:34 10° SE night (unlit)
02 Jun - 17:24:34 10° SW 17:27:50 77° NW 17:31:07 10° NE daylight
03 Jun - 01:35:20 10° NNW 01:38:12 28° NE 01:41:04 10° ESE night (unlit)
03 Jun - 03:12:42 10° W 03:14:27 14° SW 03:16:12 10° SSW night (unlit)
03 Jun - 16:32:42 10° SSW 16:35:48 40° SE 16:38:54 10° ENE daylight
03 Jun - 18:11:01 10° WNW 18:12:23 12° NW 18:13:46 10° NNW daylight
04 Jun - 00:44:09 10° N 00:45:58 14° NE 00:47:47 10° ENE night (unlit)
04 Jun - 02:19:33 10° WNW 02:22:29 32° SW 02:25:26 10° SSE night (unlit)
04 Jun - 15:41:36 10° SSE 15:43:48 17° SE 15:46:02 10° E daylight
04 Jun - 17:17:25 10° W 17:20:07 23° NW 17:22:50 10° NNE daylight
05 Jun - 01:27:10 10° NW 01:30:27 85° SW 01:33:42 10° SE night (unlit)
05 Jun - 16:24:43 10° SW 16:27:56 53° NW 16:31:10 10° NNE daylight
